Year,Month,Day,Hour,Minute,Value (Times are PST for temperature in C)
2012,06,25,00,00,9.40
2012,06,25,00,01,9.40
2012,06,25,00,02,9.40
2012,06,25,00,03,9.40
2012,06,25,00,04,9.40
2012,06,25,00,05,9.40
2012,06,25,00,06,9.40
2012,06,25,00,07,9.40
2012,06,25,00,08,9.40
2012,06,25,00,09,9.50
2012,06,25,00,10,9.50
2012,06,25,00,11,9.50
2012,06,25,00,12,9.50
2012,06,25,00,13,9.60
2012,06,25,00,14,9.60
2012,06,25,00,15,9.60
2012,06,25,00,16,9.60
2012,06,25,00,17,9.60
2012,06,25,00,18,9.60
2012,06,25,00,19,9.60
2012,06,25,00,20,9.70
2012,06,25,00,21,9.70
2012,06,25,00,22,9.70
2012,06,25,00,23,9.70
2012,06,25,00,24,9.70
2012,06,25,00,25,9.70
2012,06,25,00,26,9.70
2012,06,25,00,27,9.60
2012,06,25,00,28,9.60
2012,06,25,00,29,9.60
2012,06,25,00,30,9.50
2012,06,25,00,31,9.50
2012,06,25,00,32,9.40
2012,06,25,00,33,9.40
2012,06,25,00,34,9.40
2012,06,25,00,35,9.40
2012,06,25,00,36,9.30
2012,06,25,00,37,9.30
2012,06,25,00,38,9.30
2012,06,25,00,39,9.30
2012,06,25,00,40,9.30
2012,06,25,00,41,9.30
2012,06,25,00,42,9.20
2012,06,25,00,43,9.20
2012,06,25,00,44,9.20
2012,06,25,00,45,9.20
2012,06,25,00,46,9.20
2012,06,25,00,47,9.20
2012,06,25,00,48,9.20
2012,06,25,00,49,9.10
2012,06,25,00,50,9.10
2012,06,25,00,51,9.10
2012,06,25,00,52,9.10
2012,06,25,00,53,9.10
2012,06,25,00,54,9.10
2012,06,25,00,55,9.10
2012,06,25,00,56,9.00
2012,06,25,00,57,9.00
2012,06,25,00,58,9.00
2012,06,25,00,59,9.00
2012,06,25,01,00,9.00
2012,06,25,01,01,9.00
2012,06,25,01,02,9.00
2012,06,25,01,03,9.00
2012,06,25,01,04,9.00
2012,06,25,01,05,9.00
2012,06,25,01,06,9.00
2012,06,25,01,07,8.90
2012,06,25,01,08,8.90
2012,06,25,01,09,8.90
2012,06,25,01,10,8.90
2012,06,25,01,11,8.90
2012,06,25,01,12,8.90
2012,06,25,01,13,8.90
2012,06,25,01,14,8.90
2012,06,25,01,15,8.80
2012,06,25,01,16,8.80
2012,06,25,01,17,8.80
2012,06,25,01,18,8.80
2012,06,25,01,19,8.90
2012,06,25,01,20,8.90
2012,06,25,01,21,8.90
2012,06,25,01,22,8.90
2012,06,25,01,23,8.90
2012,06,25,01,24,8.90
2012,06,25,01,25,8.90
2012,06,25,01,26,8.90
2012,06,25,01,27,8.90
2012,06,25,01,28,8.90
2012,06,25,01,29,8.90
2012,06,25,01,30,8.90
2012,06,25,01,31,8.90
2012,06,25,01,32,8.90
2012,06,25,01,33,8.90
2012,06,25,01,34,8.90
2012,06,25,01,35,8.90
2012,06,25,01,36,8.90
2012,06,25,01,37,8.90
2012,06,25,01,38,8.90
2012,06,25,01,39,8.90
2012,06,25,01,40,8.90
2012,06,25,01,41,8.90
2012,06,25,01,42,8.90
2012,06,25,01,43,8.90
2012,06,25,01,44,8.90
2012,06,25,01,45,8.90
2012,06,25,01,46,8.90
2012,06,25,01,47,8.90
2012,06,25,01,48,8.90
2012,06,25,01,49,8.90
2012,06,25,01,50,8.90
2012,06,25,01,51,8.90
2012,06,25,01,52,8.90
2012,06,25,01,53,8.90
2012,06,25,01,54,8.90
2012,06,25,01,55,8.90
2012,06,25,01,56,8.90
2012,06,25,01,57,8.90
2012,06,25,01,58,8.90
2012,06,25,01,59,8.90
2012,06,25,02,00,8.90
2012,06,25,02,01,8.90
2012,06,25,02,02,8.90
2012,06,25,02,03,8.90
2012,06,25,02,04,8.90
2012,06,25,02,05,8.90
2012,06,25,02,06,8.90
2012,06,25,02,07,8.90
2012,06,25,02,08,8.90
2012,06,25,02,09,8.90
2012,06,25,02,10,8.90
2012,06,25,02,11,8.80
2012,06,25,02,12,8.80
2012,06,25,02,13,8.80
2012,06,25,02,14,8.80
2012,06,25,02,15,8.80
2012,06,25,02,16,8.80
2012,06,25,02,17,8.70
2012,06,25,02,18,8.70
2012,06,25,02,19,8.70
2012,06,25,02,20,8.70
2012,06,25,02,21,8.70
2012,06,25,02,22,8.70
2012,06,25,02,23,8.70
2012,06,25,02,24,8.70
2012,06,25,02,25,8.70
2012,06,25,02,26,8.70
2012,06,25,02,27,8.70
2012,06,25,02,28,8.70
2012,06,25,02,29,8.70
2012,06,25,02,30,8.70
2012,06,25,02,31,8.70
2012,06,25,02,32,8.70
2012,06,25,02,33,8.70
2012,06,25,02,34,8.70
2012,06,25,02,35,8.70
2012,06,25,02,36,8.70
2012,06,25,02,37,8.70
2012,06,25,02,38,8.70
2012,06,25,02,39,8.70
2012,06,25,02,40,8.70
2012,06,25,02,41,8.70
2012,06,25,02,42,8.70
2012,06,25,02,43,8.70
2012,06,25,02,44,8.70
2012,06,25,02,45,8.70
2012,06,25,02,46,8.70
2012,06,25,02,47,8.70
2012,06,25,02,48,8.70
2012,06,25,02,49,8.70
2012,06,25,02,50,8.80
2012,06,25,02,51,8.80
2012,06,25,02,52,8.80
2012,06,25,02,53,8.80
2012,06,25,02,54,8.80
2012,06,25,02,55,8.80
2012,06,25,02,56,8.80
2012,06,25,02,57,8.70
2012,06,25,02,58,8.70
2012,06,25,02,59,8.70
2012,06,25,03,00,8.70
2012,06,25,03,01,8.70
2012,06,25,03,02,8.70
2012,06,25,03,06,8.70
2012,06,25,03,07,8.70
2012,06,25,03,08,8.70
2012,06,25,03,09,8.70
2012,06,25,03,10,8.70
2012,06,25,03,11,8.70
2012,06,25,03,12,8.70
2012,06,25,03,13,8.70
2012,06,25,03,14,8.70
2012,06,25,03,15,8.70
2012,06,25,03,16,8.70
2012,06,25,03,17,8.80
2012,06,25,03,18,8.80
2012,06,25,03,19,8.90
2012,06,25,03,20,8.90
2012,06,25,03,21,9.00
2012,06,25,03,22,9.00
2012,06,25,03,23,9.10
2012,06,25,03,24,9.20
2012,06,25,03,25,9.30
2012,06,25,03,26,9.30
2012,06,25,03,27,9.30
2012,06,25,03,28,9.30
2012,06,25,03,29,9.30
2012,06,25,03,30,9.30
2012,06,25,03,31,9.20
2012,06,25,03,32,9.10
2012,06,25,03,33,9.00
2012,06,25,03,34,9.00
2012,06,25,03,35,8.90
2012,06,25,03,36,8.80
2012,06,25,03,37,8.80
2012,06,25,03,38,8.80
2012,06,25,03,39,8.70
2012,06,25,03,40,8.70
2012,06,25,03,41,8.70
2012,06,25,03,42,8.70
2012,06,25,03,43,8.60
2012,06,25,03,44,8.60
2012,06,25,03,45,8.60
2012,06,25,03,46,8.60
2012,06,25,03,47,8.60
2012,06,25,03,48,8.50
2012,06,25,03,49,8.50
2012,06,25,03,50,8.50
2012,06,25,03,51,8.50
2012,06,25,03,52,8.40
2012,06,25,03,53,8.40
2012,06,25,03,54,8.40
2012,06,25,03,55,8.40
2012,06,25,03,56,8.40
2012,06,25,03,57,8.40
2012,06,25,03,58,8.30
2012,06,25,03,59,8.30
2012,06,25,04,00,8.30
2012,06,25,04,01,8.40
2012,06,25,04,02,8.40
2012,06,25,04,03,8.40
2012,06,25,04,04,8.30
2012,06,25,04,05,8.30
2012,06,25,04,06,8.30
2012,06,25,04,07,8.30
2012,06,25,04,08,8.40
2012,06,25,04,09,8.40
2012,06,25,04,10,8.40
2012,06,25,04,11,8.50
2012,06,25,04,12,8.50
2012,06,25,04,13,8.60
2012,06,25,04,14,8.60
2012,06,25,04,15,8.60
2012,06,25,04,16,8.60
2012,06,25,04,17,8.70
2012,06,25,04,18,8.80
2012,06,25,04,19,8.90
2012,06,25,04,20,9.00
2012,06,25,04,21,9.10
2012,06,25,04,22,9.20
2012,06,25,04,23,9.20
2012,06,25,04,24,9.10
2012,06,25,04,25,9.10
2012,06,25,04,26,9.10
2012,06,25,04,27,9.10
2012,06,25,04,28,9.00
2012,06,25,04,29,9.00
2012,06,25,04,30,9.00
2012,06,25,04,31,8.90
2012,06,25,04,32,8.90
2012,06,25,04,33,8.80
2012,06,25,04,34,8.80
2012,06,25,04,35,8.80
2012,06,25,04,36,8.80
2012,06,25,04,37,8.80
2012,06,25,04,38,8.80
2012,06,25,04,39,8.80
2012,06,25,04,40,8.70
2012,06,25,04,41,8.70
2012,06,25,04,42,8.70
2012,06,25,04,43,8.60
2012,06,25,04,44,8.60
2012,06,25,04,45,8.60
2012,06,25,04,46,8.50
2012,06,25,04,47,8.50
2012,06,25,04,48,8.50
2012,06,25,04,49,8.50
2012,06,25,04,50,8.50
2012,06,25,04,51,8.60
2012,06,25,04,52,8.60
2012,06,25,04,53,8.70
2012,06,25,04,54,8.70
2012,06,25,04,55,8.70
2012,06,25,04,56,8.80
2012,06,25,04,57,8.80
2012,06,25,04,58,8.80
2012,06,25,04,59,8.80
2012,06,25,05,00,8.70
2012,06,25,05,01,8.70
2012,06,25,05,02,8.70
2012,06,25,05,03,8.80
2012,06,25,05,04,8.80
2012,06,25,05,05,8.80
2012,06,25,05,06,8.80
2012,06,25,05,07,8.80
2012,06,25,05,08,8.80
2012,06,25,05,09,8.80
2012,06,25,05,10,8.80
2012,06,25,05,11,8.80
2012,06,25,05,12,8.80
2012,06,25,05,13,8.70
2012,06,25,05,14,8.70
2012,06,25,05,15,8.70
2012,06,25,05,16,8.60
2012,06,25,05,17,8.60
2012,06,25,05,18,8.60
2012,06,25,05,19,8.60
2012,06,25,05,20,8.60
2012,06,25,05,21,8.60
2012,06,25,05,22,8.60
2012,06,25,05,23,8.60
2012,06,25,05,24,8.60
2012,06,25,05,25,8.60
2012,06,25,05,26,8.70
2012,06,25,05,27,8.70
2012,06,25,05,28,8.70
2012,06,25,05,29,8.70
2012,06,25,05,30,8.70
2012,06,25,05,31,8.70
2012,06,25,05,32,8.70
2012,06,25,05,33,8.70
2012,06,25,05,34,8.70
2012,06,25,05,35,8.70
2012,06,25,05,36,8.70
2012,06,25,05,37,8.70
2012,06,25,05,38,8.60
2012,06,25,05,39,8.60
2012,06,25,05,40,8.60
2012,06,25,05,41,8.60
2012,06,25,05,42,8.60
2012,06,25,05,43,8.60
2012,06,25,05,44,8.60
2012,06,25,05,45,8.60
2012,06,25,05,46,8.60
2012,06,25,05,47,8.60
2012,06,25,05,48,8.60
2012,06,25,05,49,8.60
2012,06,25,05,50,8.60
2012,06,25,05,51,8.60
2012,06,25,05,52,8.60
2012,06,25,05,53,8.60
2012,06,25,05,54,8.60
2012,06,25,05,55,8.60
2012,06,25,05,56,8.60
2012,06,25,05,57,8.60
2012,06,25,05,58,8.60
2012,06,25,05,59,8.60
2012,06,25,06,00,8.60
2012,06,25,06,01,8.60
2012,06,25,06,02,8.60
2012,06,25,06,03,8.70
2012,06,25,06,04,8.70
2012,06,25,06,05,8.70
2012,06,25,06,06,8.70
2012,06,25,06,07,8.80
2012,06,25,06,08,8.80
2012,06,25,06,09,8.80
2012,06,25,06,10,8.80
2012,06,25,06,11,8.80
2012,06,25,06,12,8.80
2012,06,25,06,13,8.80
2012,06,25,06,14,8.80
2012,06,25,06,15,8.80
2012,06,25,06,16,8.80
2012,06,25,06,17,8.80
2012,06,25,06,18,8.80
2012,06,25,06,19,8.90
2012,06,25,06,20,8.90
2012,06,25,06,21,8.90
2012,06,25,06,22,9.00
2012,06,25,06,23,9.00
2012,06,25,06,24,9.00
2012,06,25,06,25,9.10
2012,06,25,06,26,9.10
2012,06,25,06,27,9.10
2012,06,25,06,28,9.10
2012,06,25,06,29,9.10
2012,06,25,06,30,9.20
2012,06,25,06,31,9.20
2012,06,25,06,32,9.20
2012,06,25,06,33,9.30
2012,06,25,06,34,9.30
2012,06,25,06,35,9.40
2012,06,25,06,36,9.40
2012,06,25,06,37,9.50
2012,06,25,06,38,9.50
2012,06,25,06,39,9.60
2012,06,25,06,40,9.60
2012,06,25,06,41,9.60
2012,06,25,06,42,9.70
2012,06,25,06,43,9.70
2012,06,25,06,44,9.70
2012,06,25,06,45,9.80
2012,06,25,06,46,9.80
2012,06,25,06,47,9.90
2012,06,25,06,48,10.00
2012,06,25,06,49,10.10
2012,06,25,06,50,10.20
2012,06,25,06,51,10.20
2012,06,25,06,52,10.30
2012,06,25,06,53,10.40
2012,06,25,06,54,10.50
2012,06,25,06,55,10.60
2012,06,25,06,56,10.70
2012,06,25,06,57,10.70
2012,06,25,06,58,10.80
2012,06,25,06,59,10.80
2012,06,25,07,00,10.90
2012,06,25,07,01,10.90
2012,06,25,07,02,11.00
2012,06,25,07,03,11.10
2012,06,25,07,04,11.20
2012,06,25,07,05,11.20
2012,06,25,07,06,11.30
2012,06,25,07,07,11.40
2012,06,25,07,08,11.40
2012,06,25,07,09,11.50
2012,06,25,07,10,11.50
2012,06,25,07,11,11.60
2012,06,25,07,12,11.60
2012,06,25,07,13,11.60
2012,06,25,07,14,11.70
2012,06,25,07,15,11.70
2012,06,25,07,16,11.70
2012,06,25,07,17,11.70
2012,06,25,07,18,11.80
2012,06,25,07,19,11.80
2012,06,25,07,20,11.80
2012,06,25,07,21,11.80
2012,06,25,07,22,11.90
2012,06,25,07,23,11.90
2012,06,25,07,24,12.00
2012,06,25,07,25,12.00
2012,06,25,07,26,12.00
2012,06,25,07,27,12.10
2012,06,25,07,28,12.10
2012,06,25,07,29,12.10
2012,06,25,07,30,12.20
2012,06,25,07,31,12.20
2012,06,25,07,32,12.20
2012,06,25,07,33,12.20
2012,06,25,07,34,12.30
2012,06,25,07,35,12.30
2012,06,25,07,36,12.30
2012,06,25,07,37,12.40
2012,06,25,07,38,12.40
2012,06,25,07,39,12.40
2012,06,25,07,40,12.50
2012,06,25,07,41,12.50
2012,06,25,07,42,12.60
2012,06,25,07,43,12.60
2012,06,25,07,44,12.70
2012,06,25,07,45,12.70
2012,06,25,07,46,12.70
2012,06,25,07,47,12.70
2012,06,25,07,48,12.80
2012,06,25,07,49,12.80
2012,06,25,07,50,12.80
2012,06,25,07,51,12.90
2012,06,25,07,52,12.90
2012,06,25,07,53,12.90
2012,06,25,07,54,12.90
2012,06,25,07,55,13.00
2012,06,25,07,56,13.00
2012,06,25,07,57,13.10
2012,06,25,07,58,13.10
2012,06,25,07,59,13.10
2012,06,25,08,00,13.10
2012,06,25,08,01,13.10
2012,06,25,08,02,13.20
2012,06,25,08,03,13.20
2012,06,25,08,04,13.30
2012,06,25,08,05,13.30
2012,06,25,08,06,13.30
2012,06,25,08,07,13.30
2012,06,25,08,08,13.30
2012,06,25,08,09,13.30
2012,06,25,08,10,13.40
2012,06,25,08,11,13.40
2012,06,25,08,12,13.40
2012,06,25,08,13,13.40
2012,06,25,08,14,13.40
2012,06,25,08,15,13.50
2012,06,25,08,16,13.50
2012,06,25,08,17,13.60
2012,06,25,08,18,13.60
2012,06,25,08,19,13.60
2012,06,25,08,20,13.60
2012,06,25,08,21,13.60
2012,06,25,08,22,13.70
2012,06,25,08,23,13.70
2012,06,25,08,24,13.70
2012,06,25,08,25,13.80
2012,06,25,08,26,13.80
2012,06,25,08,27,13.80
2012,06,25,08,28,13.80
2012,06,25,08,29,13.90
2012,06,25,08,30,13.90
2012,06,25,08,31,13.90
2012,06,25,08,32,14.00
2012,06,25,08,33,14.00
2012,06,25,08,34,14.10
2012,06,25,08,35,14.20
2012,06,25,08,36,14.20
2012,06,25,08,37,14.20
2012,06,25,08,38,14.20
2012,06,25,08,39,14.20
2012,06,25,08,40,14.20
2012,06,25,08,41,14.30
2012,06,25,08,42,14.30
2012,06,25,08,43,14.30
2012,06,25,08,44,14.30
2012,06,25,08,45,14.30
2012,06,25,08,46,14.30
2012,06,25,08,47,14.30
2012,06,25,08,48,14.30
2012,06,25,08,49,14.20
2012,06,25,08,50,14.20
2012,06,25,08,51,14.20
2012,06,25,08,52,14.20
2012,06,25,08,53,14.20
2012,06,25,08,54,14.30
2012,06,25,08,55,14.30
2012,06,25,08,56,14.30
2012,06,25,08,57,14.20
2012,06,25,08,58,14.20
2012,06,25,08,59,14.20
2012,06,25,09,00,14.20
2012,06,25,09,01,14.20
2012,06,25,09,02,14.20
2012,06,25,09,03,14.20
2012,06,25,09,04,14.30
2012,06,25,09,05,14.30
2012,06,25,09,06,14.30
2012,06,25,09,07,14.30
2012,06,25,09,08,14.40
2012,06,25,09,09,14.40
2012,06,25,09,10,14.40
2012,06,25,09,11,14.50
2012,06,25,09,12,14.50
2012,06,25,09,13,14.60
2012,06,25,09,14,14.60
2012,06,25,09,15,14.60
2012,06,25,09,16,14.60
2012,06,25,09,17,14.60
2012,06,25,09,18,14.70
2012,06,25,09,19,14.70
2012,06,25,09,20,14.70
2012,06,25,09,21,14.70
2012,06,25,09,22,14.70
2012,06,25,09,23,14.80
2012,06,25,09,24,14.80
2012,06,25,09,25,14.80
2012,06,25,09,26,14.90
2012,06,25,09,27,14.90
2012,06,25,09,28,15.00
2012,06,25,09,29,15.00
2012,06,25,09,30,15.10
2012,06,25,09,31,15.10
2012,06,25,09,32,15.10
2012,06,25,09,33,15.20
2012,06,25,09,34,15.20
2012,06,25,09,35,15.20
2012,06,25,09,36,15.30
2012,06,25,09,37,15.30
2012,06,25,09,38,15.40
2012,06,25,09,39,15.40
2012,06,25,09,40,15.40
2012,06,25,09,41,15.50
2012,06,25,09,42,15.50
2012,06,25,09,43,15.50
2012,06,25,09,44,15.50
2012,06,25,09,45,15.50
2012,06,25,09,46,15.60
2012,06,25,09,47,15.60
2012,06,25,09,48,15.60
2012,06,25,09,49,15.70
2012,06,25,09,50,15.70
2012,06,25,09,51,15.70
2012,06,25,09,52,15.70
2012,06,25,09,53,15.80
2012,06,25,09,54,15.80
2012,06,25,09,55,15.80
2012,06,25,09,56,15.80
2012,06,25,09,57,15.80
2012,06,25,09,58,15.90
2012,06,25,09,59,15.90
2012,06,25,10,00,15.90
2012,06,25,10,01,15.90
2012,06,25,10,02,16.00
2012,06,25,10,03,16.00
2012,06,25,10,04,16.00
2012,06,25,10,05,16.00
2012,06,25,10,06,16.10
2012,06,25,10,07,16.10
2012,06,25,10,08,16.10
2012,06,25,10,09,16.20
2012,06,25,10,10,16.20
2012,06,25,10,11,16.30
2012,06,25,10,12,16.30
2012,06,25,10,13,16.40
2012,06,25,10,14,16.40
2012,06,25,10,15,16.50
2012,06,25,10,16,16.50
2012,06,25,10,17,16.60
2012,06,25,10,18,16.70
2012,06,25,10,19,16.70
2012,06,25,10,20,16.70
2012,06,25,10,21,16.80
2012,06,25,10,22,16.90
2012,06,25,10,23,16.90
2012,06,25,10,24,16.90
2012,06,25,10,25,16.90
2012,06,25,10,26,17.00
2012,06,25,10,27,17.00
2012,06,25,10,28,17.10
2012,06,25,10,29,17.10
2012,06,25,10,30,17.10
2012,06,25,10,31,17.10
2012,06,25,10,32,17.10
2012,06,25,10,33,17.10
2012,06,25,10,34,17.10
2012,06,25,10,35,17.10
2012,06,25,10,36,17.20
2012,06,25,10,37,17.30
2012,06,25,10,38,17.30
2012,06,25,10,39,17.40
2012,06,25,10,40,17.40
2012,06,25,10,41,17.50
2012,06,25,10,42,17.60
2012,06,25,10,43,17.60
2012,06,25,10,44,17.70
2012,06,25,10,45,17.70
2012,06,25,10,46,17.80
2012,06,25,10,47,17.80
2012,06,25,10,48,17.90
2012,06,25,10,49,17.90
2012,06,25,10,50,17.90
2012,06,25,10,51,17.80
2012,06,25,10,52,17.80
2012,06,25,10,53,17.70
2012,06,25,10,54,17.70
2012,06,25,10,55,17.70
2012,06,25,10,56,17.70
2012,06,25,10,57,17.70
2012,06,25,10,58,17.70
2012,06,25,10,59,17.70
2012,06,25,11,00,17.70
2012,06,25,11,01,17.80
2012,06,25,11,02,17.80
2012,06,25,11,03,17.80
2012,06,25,11,04,17.90
2012,06,25,11,05,17.90
2012,06,25,11,06,17.90
2012,06,25,11,07,17.90
2012,06,25,11,08,17.90
2012,06,25,11,09,17.90
2012,06,25,11,10,17.80
2012,06,25,11,11,17.80
2012,06,25,11,12,17.80
2012,06,25,11,13,17.80
2012,06,25,11,14,17.90
2012,06,25,11,15,17.90
2012,06,25,11,16,18.00
2012,06,25,11,17,18.10
2012,06,25,11,18,18.10
2012,06,25,11,19,18.10
2012,06,25,11,20,18.10
2012,06,25,11,21,18.10
2012,06,25,11,22,18.10
2012,06,25,11,23,18.10
2012,06,25,11,24,18.00
2012,06,25,11,25,17.90
2012,06,25,11,26,17.80
2012,06,25,11,27,17.70
2012,06,25,11,28,17.50
2012,06,25,11,29,17.30
2012,06,25,11,30,17.20
2012,06,25,11,31,17.10
2012,06,25,11,32,17.00
2012,06,25,11,33,16.90
2012,06,25,11,34,16.90
2012,06,25,11,35,16.80
2012,06,25,11,36,16.80
2012,06,25,11,37,16.80
2012,06,25,11,38,16.70
2012,06,25,11,39,16.70
2012,06,25,11,40,16.70
2012,06,25,11,41,16.70
2012,06,25,11,42,16.70
2012,06,25,11,43,16.80
2012,06,25,11,44,16.80
2012,06,25,11,45,16.80
2012,06,25,11,46,16.90
2012,06,25,11,47,16.90
2012,06,25,11,48,16.90
2012,06,25,11,49,16.90
2012,06,25,11,50,16.90
2012,06,25,11,51,16.90
2012,06,25,11,52,17.00
2012,06,25,11,53,17.00
2012,06,25,11,54,17.10
2012,06,25,11,55,17.10
2012,06,25,11,56,17.10
2012,06,25,11,57,17.10
2012,06,25,11,58,17.20
2012,06,25,11,59,17.20
2012,06,25,12,00,17.30
2012,06,25,12,01,17.40
2012,06,25,12,02,17.50
2012,06,25,12,03,17.50
2012,06,25,12,04,17.60
2012,06,25,12,05,17.70
2012,06,25,12,06,17.70
2012,06,25,12,07,17.80
2012,06,25,12,08,17.80
2012,06,25,12,09,17.90
2012,06,25,12,10,18.00
2012,06,25,12,11,18.10
2012,06,25,12,12,18.20
2012,06,25,12,13,18.30
2012,06,25,12,14,18.30
2012,06,25,12,15,18.30
2012,06,25,12,16,18.30
2012,06,25,12,17,18.30
2012,06,25,12,18,18.30
2012,06,25,12,19,18.30
2012,06,25,12,20,18.20
2012,06,25,12,21,18.20
2012,06,25,12,22,18.10
2012,06,25,12,23,18.20
2012,06,25,12,24,18.20
2012,06,25,12,25,18.20
2012,06,25,12,26,18.20
2012,06,25,12,27,18.20
2012,06,25,12,28,18.20
2012,06,25,12,29,18.20
2012,06,25,12,30,18.20
2012,06,25,12,31,18.20
2012,06,25,12,32,18.20
2012,06,25,12,33,18.10
2012,06,25,12,34,18.20
2012,06,25,12,35,18.20
2012,06,25,12,36,18.20
2012,06,25,12,37,18.20
2012,06,25,12,38,18.30
2012,06,25,12,39,18.30
2012,06,25,12,40,18.40
2012,06,25,12,41,18.50
2012,06,25,12,42,18.50
2012,06,25,12,43,18.60
2012,06,25,12,44,18.60
2012,06,25,12,45,18.70
2012,06,25,12,46,18.70
2012,06,25,12,47,18.70
2012,06,25,12,48,18.80
2012,06,25,12,49,18.90
2012,06,25,12,50,18.90
2012,06,25,12,51,19.00
2012,06,25,12,52,19.10
2012,06,25,12,53,19.20
2012,06,25,12,54,19.30
2012,06,25,12,55,19.30
2012,06,25,12,56,19.40
2012,06,25,12,57,19.50
2012,06,25,12,58,19.50
2012,06,25,12,59,19.50
2012,06,25,13,00,19.40
2012,06,25,13,01,19.30
2012,06,25,13,02,19.20
2012,06,25,13,03,19.00
2012,06,25,13,04,18.90
2012,06,25,13,05,18.80
2012,06,25,13,06,18.70
2012,06,25,13,07,18.60
2012,06,25,13,08,18.50
2012,06,25,13,09,18.40
2012,06,25,13,10,18.40
2012,06,25,13,11,18.30
2012,06,25,13,12,18.30
2012,06,25,13,13,18.20
2012,06,25,13,14,18.30
2012,06,25,13,15,18.30
2012,06,25,13,16,18.30
2012,06,25,13,17,18.30
2012,06,25,13,18,18.30
2012,06,25,13,19,18.20
2012,06,25,13,20,18.20
2012,06,25,13,21,18.20
2012,06,25,13,22,18.20
2012,06,25,13,23,18.20
2012,06,25,13,24,18.30
2012,06,25,13,25,18.30
2012,06,25,13,26,18.40
2012,06,25,13,27,18.40
2012,06,25,13,28,18.40
2012,06,25,13,29,18.40
2012,06,25,13,30,18.50
2012,06,25,13,31,18.50
2012,06,25,13,32,18.60
2012,06,25,13,33,18.60
2012,06,25,13,34,18.70
2012,06,25,13,35,18.70
2012,06,25,13,36,18.80
2012,06,25,13,37,18.80
2012,06,25,13,38,18.90
2012,06,25,13,39,18.90
2012,06,25,13,40,18.90
2012,06,25,13,41,19.00
2012,06,25,13,42,19.00
2012,06,25,13,43,18.90
2012,06,25,13,44,18.90
2012,06,25,13,45,18.90
2012,06,25,13,46,18.90
2012,06,25,13,47,18.80
2012,06,25,13,48,18.80
2012,06,25,13,49,18.90
2012,06,25,13,50,18.90
2012,06,25,13,51,18.90
2012,06,25,13,52,18.90
2012,06,25,13,53,18.90
2012,06,25,13,54,18.90
2012,06,25,13,55,19.00
2012,06,25,13,56,19.00
2012,06,25,13,57,19.00
2012,06,25,13,58,19.00
2012,06,25,13,59,19.00
2012,06,25,14,00,19.00
2012,06,25,14,01,19.00
2012,06,25,14,02,18.90
2012,06,25,14,03,18.90
2012,06,25,14,04,18.90
2012,06,25,14,05,18.90
2012,06,25,14,06,18.80
2012,06,25,14,07,18.80
2012,06,25,14,08,18.80
2012,06,25,14,09,18.80
2012,06,25,14,10,18.90
2012,06,25,14,11,18.90
2012,06,25,14,12,19.00
2012,06,25,14,13,19.20
2012,06,25,14,14,19.30
2012,06,25,14,15,19.40
2012,06,25,14,16,19.50
2012,06,25,14,17,19.60
2012,06,25,14,18,19.70
2012,06,25,14,19,19.80
2012,06,25,14,20,19.80
2012,06,25,14,21,19.90
2012,06,25,14,22,19.90
2012,06,25,14,23,19.90
2012,06,25,14,24,19.90
2012,06,25,14,25,20.00
2012,06,25,14,26,20.00
2012,06,25,14,27,20.00
2012,06,25,14,28,19.90
2012,06,25,14,29,19.90
2012,06,25,14,30,19.80
2012,06,25,14,31,19.80
2012,06,25,14,32,19.80
2012,06,25,14,33,19.80
2012,06,25,14,34,19.80
2012,06,25,14,35,19.80
2012,06,25,14,36,19.70
2012,06,25,14,37,19.60
2012,06,25,14,38,19.50
2012,06,25,14,39,19.40
2012,06,25,14,40,19.30
2012,06,25,14,41,19.30
2012,06,25,14,42,19.30
2012,06,25,14,43,19.30
2012,06,25,14,44,19.30
2012,06,25,14,45,19.30
2012,06,25,14,46,19.40
2012,06,25,14,47,19.40
2012,06,25,14,48,19.50
2012,06,25,14,49,19.50
2012,06,25,14,50,19.60
2012,06,25,14,51,19.70
2012,06,25,14,52,19.80
2012,06,25,14,53,19.80
2012,06,25,14,54,19.80
2012,06,25,14,55,19.80
2012,06,25,14,56,19.80
2012,06,25,14,57,19.90
2012,06,25,14,58,19.90
2012,06,25,14,59,20.00
2012,06,25,15,00,20.00
2012,06,25,15,01,20.10
2012,06,25,15,02,20.10
2012,06,25,15,03,20.10
2012,06,25,15,04,20.10
2012,06,25,15,05,20.00
2012,06,25,15,06,19.90
2012,06,25,15,07,19.80
2012,06,25,15,08,19.70
2012,06,25,15,09,19.60
2012,06,25,15,10,19.40
2012,06,25,15,11,19.30
2012,06,25,15,12,19.10
2012,06,25,15,13,19.00
2012,06,25,15,14,18.70
2012,06,25,15,15,18.50
2012,06,25,15,16,18.30
2012,06,25,15,17,18.20
2012,06,25,15,18,18.00
2012,06,25,15,19,17.90
2012,06,25,15,20,17.70
2012,06,25,15,21,17.60
2012,06,25,15,22,17.50
2012,06,25,15,23,17.40
2012,06,25,15,24,17.30
2012,06,25,15,25,17.30
2012,06,25,15,26,17.30
2012,06,25,15,27,17.30
2012,06,25,15,28,17.30
2012,06,25,15,29,17.40
2012,06,25,15,30,17.50
2012,06,25,15,31,17.50
2012,06,25,15,32,17.60
2012,06,25,15,33,17.70
2012,06,25,15,34,17.80
2012,06,25,15,35,17.80
2012,06,25,15,36,17.90
2012,06,25,15,37,17.90
2012,06,25,15,38,17.90
2012,06,25,15,39,17.90
2012,06,25,15,40,17.80
2012,06,25,15,41,17.80
2012,06,25,15,42,17.80
2012,06,25,15,43,17.90
2012,06,25,15,44,17.90
2012,06,25,15,45,17.90
2012,06,25,15,46,18.00
2012,06,25,15,47,18.00
2012,06,25,15,48,18.10
2012,06,25,15,49,18.10
2012,06,25,15,50,18.10
2012,06,25,15,51,18.10
2012,06,25,15,52,18.10
2012,06,25,15,53,18.00
2012,06,25,15,54,18.00
2012,06,25,15,55,18.00
2012,06,25,15,56,17.90
2012,06,25,15,57,17.90
2012,06,25,15,58,17.80
2012,06,25,15,59,17.50
2012,06,25,16,00,17.30
2012,06,25,16,01,17.00
2012,06,25,16,02,16.90
2012,06,25,16,03,16.70
2012,06,25,16,04,16.60
2012,06,25,16,05,16.50
2012,06,25,16,06,16.40
2012,06,25,16,07,16.30
2012,06,25,16,08,16.20
2012,06,25,16,09,16.20
2012,06,25,16,10,16.20
2012,06,25,16,11,16.20
2012,06,25,16,12,16.20
2012,06,25,16,13,16.20
2012,06,25,16,14,16.20
2012,06,25,16,15,16.20
2012,06,25,16,16,16.20
2012,06,25,16,17,16.20
2012,06,25,16,18,16.20
2012,06,25,16,19,16.20
2012,06,25,16,20,16.20
2012,06,25,16,21,16.20
2012,06,25,16,22,16.20
2012,06,25,16,23,16.20
2012,06,25,16,24,16.20
2012,06,25,16,25,16.20
2012,06,25,16,26,16.20
2012,06,25,16,27,16.20
2012,06,25,16,28,16.30
2012,06,25,16,29,16.30
2012,06,25,16,30,16.30
2012,06,25,16,31,16.40
2012,06,25,16,32,16.40
2012,06,25,16,33,16.50
2012,06,25,16,34,16.50
2012,06,25,16,35,16.70
2012,06,25,16,36,16.70
2012,06,25,16,37,16.70
2012,06,25,16,38,16.60
2012,06,25,16,39,16.50
2012,06,25,16,40,16.50
2012,06,25,16,41,16.40
2012,06,25,16,42,16.30
2012,06,25,16,43,16.30
2012,06,25,16,44,16.20
2012,06,25,16,45,16.20
2012,06,25,16,46,16.20
2012,06,25,16,47,16.20
2012,06,25,16,48,16.20
2012,06,25,16,49,16.20
2012,06,25,16,50,16.30
2012,06,25,16,51,16.30
2012,06,25,16,52,16.30
2012,06,25,16,53,16.30
2012,06,25,16,54,16.30
2012,06,25,16,55,16.30
2012,06,25,16,56,16.30
2012,06,25,16,57,16.40
2012,06,25,16,58,16.40
2012,06,25,16,59,16.40
2012,06,25,17,00,16.50
2012,06,25,17,01,16.50
2012,06,25,17,02,16.40
2012,06,25,17,03,16.40
2012,06,25,17,04,16.30
2012,06,25,17,05,16.30
2012,06,25,17,06,16.30
2012,06,25,17,07,16.30
2012,06,25,17,08,16.30
2012,06,25,17,09,16.30
2012,06,25,17,10,16.30
2012,06,25,17,11,16.30
2012,06,25,17,12,16.30
2012,06,25,17,13,16.20
2012,06,25,17,14,16.20
2012,06,25,17,15,16.20
2012,06,25,17,16,16.10
2012,06,25,17,17,16.20
2012,06,25,17,18,16.20
2012,06,25,17,19,16.20
2012,06,25,17,20,16.20
2012,06,25,17,21,16.20
2012,06,25,17,22,16.20
2012,06,25,17,23,16.20
2012,06,25,17,24,16.20
2012,06,25,17,25,16.20
2012,06,25,17,26,16.10
2012,06,25,17,27,16.10
2012,06,25,17,28,16.10
2012,06,25,17,29,16.10
2012,06,25,17,30,16.00
2012,06,25,17,31,16.00
2012,06,25,17,32,16.00
2012,06,25,17,33,15.90
2012,06,25,17,34,15.90
2012,06,25,17,35,15.90
2012,06,25,17,36,16.00
2012,06,25,17,37,16.00
2012,06,25,17,38,16.10
2012,06,25,17,39,16.10
2012,06,25,17,40,16.10